DW5310 Weather Reports


Display with metric or nautical units.
time (UTC)temp
F
wind
direction
speed
MPH
gust
MPH
rain 1hr
in
rain 24hr
in
rain mn
in
humidity
%
barometer
mb
20260905031504 55 305 0.0 0.0 0.00 0.39 0.39 95 1014.5
20260905031004 55 305 0.0 0.0 0.00 0.39 0.39 95 1013.5
20260905030504 55 305 0.0 0.0 0.00 0.39 0.39 95 1013.5
20260905030005 55 305 0.0 0.0 0.00 0.39 0.39 95 1013.5
20260905025005 55 305 0.0 0.0 0.00 0.39 0.39 95 1013.5
20260905023505 56 305 0.0 0.0 0.00 0.39 0.39 94 1013.5
20260905022504 56 305 0.0 0.0 0.00 0.39 0.39 94 1013.5
20260905022006 56 305 0.0 0.0 0.00 0.39 0.39 94 1013.5
20260905021506 56 305 0.0 0.0 0.00 0.39 0.39 94 1013.5
20260905021004 57 305 0.0 0.0 0.00 0.39 0.39 94 1013.5
20260905020504 57 192 0.0 0.0 0.00 0.39 0.39 94 1013.5
20260905020005 57 205 0.0 0.0 0.00 0.39 0.39 94 1013.5
20260905015504 57 58 0.0 0.0 0.00 0.39 0.39 94 1013.5
20260905015004 57 58 0.0 0.0 0.00 0.39 0.39 94 1013.5
20260905014505 57 58 0.0 0.0 0.00 0.39 0.39 94 1013.5
20260905014005 57 70 0.0 0.0 0.00 0.39 0.39 94 1013.5
20260905013504 57 58 0.0 0.0 0.00 0.39 0.39 94 1013.5
20260905013005 57 58 0.0 0.0 0.00 0.39 0.39 94 1013.5
20260905012504 57 170 0.0 0.0 0.00 0.39 0.39 93 1012.5
20260905011504 58 170 0.0 0.0 0.00 0.39 0.39 93 1012.5
20260905011004 58 170 0.0 0.0 0.00 0.39 0.39 93 1012.5
20260905010504 58 170 0.0 0.0 0.00 0.39 0.39 93 1012.5
20260905010005 58 170 0.0 0.0 0.00 0.39 0.39 93 1012.5
20260905005504 58 80 0.0 0.0 0.00 0.39 0.39 93 1012.5
20260905005004 58 101 0.0 0.0 0.00 0.39 0.39 93 1012.5
20260905004504 58 156 0.0 0.0 0.00 0.39 0.39 94 1012.5
20260905004004 58 148 0.0 0.0 0.00 0.39 0.39 94 1012.5
20260905003004 58 170 0.0 0.0 0.00 0.39 0.39 93 1012.5
20260905002504 58 170 0.0 0.0 0.00 0.39 0.39 94 1012.5
20260905002004 59 142 0.0 0.0 0.00 0.39 0.39 94 1012.5
20260905001505 59 140 0.0 0.0 0.00 0.39 0.39 94 1012.5
20260905001005 59 178 0.0 0.0 0.00 0.39 0.39 93 1012.5
20260905000503 58 148 0.0 0.0 0.00 0.39 0.39 93 1012.5
20260905000005 58 305 0.0 0.0 0.00 0.39 0.39 93 1012.5
20260904235504 58 305 0.0 0.0 0.00 0.39 0.39 93 1012.5
20260904235004 58 305 0.0 2.0 0.00 0.39 0.39 94 1012.5
20260904234004 58 125 0.0 0.0 0.00 0.39 0.39 93 1012.5
20260904233503 58 125 0.0 0.0 0.00 0.39 0.39 93 1012.5
20260904233004 58 92 0.0 0.0 0.06 0.39 0.39 93 1012.5
20260904232004 57 80 0.0 0.0 0.06 0.39 0.39 93 1012.5
20260904231504 57 125 0.0 0.0 0.06 0.44 0.39 93 1012.5
20260904231004 57 102 0.0 0.0 0.06 0.44 0.39 93 1012.5
20260904230504 56 102 0.0 0.0 0.06 0.44 0.39 92 1012.5
20260904230004 56 148 0.0 0.0 0.06 0.44 0.39 92 1012.5
20260904225504 56 92 0.0 0.0 0.06 0.44 0.39 91 1012.5
20260904224504 56 125 0.0 0.0 0.06 0.44 0.39 90 1012.5
20260904224004 55 118 0.0 0.0 0.10 0.44 0.39 90 1012.5
20260904223504 55 80 0.0 2.0 0.10 0.44 0.39 90 1012.5
20260904223004 55 166 0.0 2.0 0.19 0.38 0.34 90 1012.5
20260904222004 56 282 0.0 0.0 0.28 0.38 0.34 88 1012.5
20260904221505 56 282 0.0 0.0 0.28 0.38 0.34 86 1012.5
20260904221003 56 282 0.0 0.0 0.28 0.38 0.34 85 1012.5
20260904220504 56 282 0.0 0.0 0.28 0.38 0.34 84 1012.5
20260904220004 56 282 0.0 0.0 0.28 0.38 0.34 83 1012.5
20260904215504 56 282 0.0 0.0 0.28 0.38 0.34 82 1012.5
20260904215004 57 282 0.0 0.0 0.28 0.38 0.34 81 1012.5
20260904214004 58 35 0.0 7.0 0.23 0.34 0.29 79 1011.5
20260904213504 59 302 1.0 10.0 0.23 0.34 0.29 77 1011.5
20260904213004 59 250 3.0 20.0 0.09 0.19 0.15 77 1011.5
20260904212504 61 244 5.0 20.0 0.04 0.14 0.10 74 1012.5
20260904212004 64 177 2.0 20.0 0.00 0.10 0.06 67 1012.5
20260904211504 65 241 0.0 0.0 0.00 0.10 0.06 68 1012.5
20260904211004 65 215 0.0 5.0 0.00 0.10 0.06 68 1011.5
20260904210503 66 180 1.0 5.0 0.00 0.10 0.06 68 1011.5
20260904210004 66 192 0.0 6.0 0.00 0.10 0.06 69 1011.5
20260904205504 66 305 0.0 6.0 0.00 0.10 0.06 70 1011.5
20260904205004 65 174 1.0 6.0 0.00 0.10 0.06 67 1011.5
20260904204504 64 215 0.0 0.0 0.00 0.10 0.06 69 1011.5
20260904204004 64 341 0.0 0.0 0.00 0.10 0.06 71 1011.5
20260904203504 64 305 0.0 0.0 0.00 0.10 0.06 70 1011.5
20260904202504 64 35 0.0 0.0 0.00 0.10 0.06 71 1011.5
20260904202004 64 35 0.0 0.0 0.00 0.10 0.06 71 1011.5
20260904201507 64 86 0.0 9.0 0.00 0.10 0.06 72 1011.5
20260904201007 64 305 1.0 9.0 0.00 0.10 0.06 72 1011.5
20260904200506 64 274 1.0 9.0 0.00 0.10 0.06 73 1011.5
20260904200006 64 58 0.0 2.0 0.00 0.10 0.06 71 1011.5
20260904195507 64 220 0.0 0.0 0.00 0.10 0.06 70 1011.5
20260904195007 64 300 0.0 5.0 0.00 0.10 0.06 71 1011.5
20260904194507 64 136 0.0 5.0 0.00 0.10 0.06 71 1011.5
20260904194006 64 45 1.0 5.0 0.00 0.10 0.06 73 1012.5
20260904192506 64 35 0.0 6.0 0.00 0.10 0.06 74 1012.5
20260904191506 64 42 2.0 6.0 0.00 0.10 0.06 75 1012.5
20260904191006 64 35 2.0 0.0 0.00 0.10 0.06 76 1012.5
20260904190507 64 35 2.0 6.0 0.00 0.10 0.06 77 1012.5
20260904190006 63 35 2.0 6.0 0.00 0.10 0.06 78 1012.5
20260904185507 63 110 4.0 6.0 0.00 0.10 0.06 78 1012.5
20260904185007 63 187 0.0 6.0 0.00 0.10 0.06 79 1012.5
20260904184507 62 170 0.0 8.0 0.00 0.10 0.06 79 1012.5
20260904184006 62 107 2.0 8.0 0.00 0.10 0.06 80 1012.5
20260904183507 62 38 2.0 8.0 0.00 0.10 0.06 81 1012.5
20260904183006 62 316 5.0 8.0 0.00 0.15 0.06 82 1012.5
20260904182507 62 48 2.0 7.0 0.00 0.20 0.06 82 1011.5
20260904182006 61 80 3.0 7.0 0.00 0.20 0.06 82 1011.5
20260904181506 61 80 0.0 3.0 0.00 0.20 0.06 83 1011.5
20260904181007 61 68 2.0 5.0 0.00 0.20 0.06 84 1011.5
20260904180507 62 80 1.0 6.0 0.00 0.20 0.06 84 1011.5
20260904180007 62 126 3.0 7.0 0.00 0.20 0.06 84 1011.5
20260904175506 62 127 5.0 7.0 0.00 0.20 0.06 89 1011.5
20260904175007 62 46 3.0 7.0 0.00 0.20 0.06 89 1011.5
20260904174006 61 96 3.0 6.0 0.00 0.20 0.06 91 1011.5
20260904173506 60 115 5.0 6.0 0.00 0.20 0.06 92 1011.5
20260904173006 60 148 0.0 7.0 0.00 0.20 0.06 93 1011.5
20260904172506 60 64 3.0 8.0 0.00 0.20 0.06 93 1011.5
20260904172006 59 119 0.0 8.0 0.00 0.20 0.06 93 1011.5
20260904171007 59 45 2.0 6.0 0.00 0.20 0.06 95 1011.5
20260904170506 58 65 1.0 6.0 0.00 0.20 0.06 95 1011.5
20260904165007 58 110 2.0 7.0 0.00 0.20 0.06 96 1010.5
20260904164506 57 35 3.0 7.0 0.00 0.20 0.06 96 1010.5
20260904164006 56 109 2.0 3.0 0.00 0.20 0.06 96 1011.5
20260904163506 56 117 0.0 2.0 0.00 0.20 0.06 96 1011.5
20260904163006 56 49 0.0 5.0 0.00 0.20 0.06 96 1011.5
20260904162506 56 80 0.0 5.0 0.00 0.20 0.06 96 1010.5
20260904161506 55 80 0.0 3.0 0.00 0.20 0.06 97 1010.5
20260904161007 55 126 1.0 3.0 0.00 0.20 0.06 97 1010.5
20260904160506 54 35 0.0 2.0 0.00 0.20 0.06 97 1010.5
20260904160006 54 86 0.0 0.0 0.00 0.20 0.06 97 1010.5
20260904155507 54 58 0.0 5.0 0.00 0.20 0.06 97 1010.5
20260904155006 54 71 2.0 5.0 0.00 0.20 0.06 97 1010.5
20260904154507 54 35 0.0 2.0 0.00 0.20 0.06 97 1010.5
20260904154006 53 58 0.0 5.0 0.00 0.20 0.06 97 1010.5
20260904153507 53 67 1.0 5.0 0.00 0.20 0.06 97 1010.5
20260904152506 53 113 1.0 6.0 0.00 0.20 0.06 97 1010.5
20260904152006 53 102 1.0 6.0 0.00 0.20 0.06 97 1010.5
20260904151506 53 164 4.0 6.0 0.00 0.20 0.06 97 1010.5
20260904151006 53 205 0.0 5.0 0.00 0.20 0.06 97 1010.5
20260904150506 53 148 0.0 0.0 0.00 0.20 0.06 97 1010.5
20260904145006 52 35 0.0 0.0 0.00 0.20 0.06 97 1010.5
20260904144006 52 35 0.0 2.0 0.00 0.20 0.06 97 1010.5
20260904143506 52 35 0.0 2.0 0.00 0.20 0.06 97 1010.5
20260904143006 52 35 0.0 0.0 0.00 0.20 0.06 97 1010.5
20260904142005 52 35 0.0 3.0 0.00 0.24 0.06 96 1010.5
20260904141006 52 35 0.0 0.0 0.00 0.24 0.06 97 1011.5
20260904140505 52 35 0.0 0.0 0.00 0.24 0.06 96 1011.5
20260904140006 52 35 0.0 0.0 0.00 0.24 0.06 96 1011.5
20260904134506 52 35 0.0 0.0 0.00 0.24 0.06 96 1010.5
20260904134005 52 58 0.0 0.0 0.00 0.24 0.06 96 1010.5
20260904133505 52 35 0.0 0.0 0.00 0.24 0.06 96 1010.5
20260904133006 52 35 0.0 0.0 0.00 0.24 0.06 96 1010.5
20260904132506 52 35 0.0 5.0 0.00 0.24 0.06 96 1010.5
20260904132005 52 35 1.0 5.0 0.00 0.24 0.06 96 1010.5
20260904131506 52 326 0.0 3.0 0.00 0.24 0.06 96 1010.5
20260904131006 52 51 1.0 5.0 0.00 0.24 0.06 96 1010.5
20260904130506 52 147 1.0 5.0 0.00 0.24 0.06 96 1010.5
20260904130005 52 125 1.0 3.0 0.00 0.24 0.06 95 1010.5
20260904125506 52 148 2.0 3.0 0.00 0.24 0.06 95 1009.5
20260904125005 52 282 0.0 0.0 0.00 0.24 0.06 95 1009.5
20260904124506 52 282 0.0 0.0 0.00 0.24 0.06 95 1009.5
20260904124005 52 282 0.0 0.0 0.00 0.24 0.06 95 1009.5
20260904123506 52 282 0.0 0.0 0.00 0.24 0.06 94 1009.5
20260904122505 52 282 0.0 0.0 0.00 0.24 0.06 94 1009.5
20260904122006 52 282 0.0 0.0 0.00 0.24 0.06 93 1009.5
20260904121506 52 282 0.0 0.0 0.00 0.24 0.06 93 1009.5
20260904121006 52 282 0.0 2.0 0.00 0.24 0.06 93 1009.5
20260904120506 52 282 0.0 5.0 0.00 0.24 0.06 93 1009.5
20260904120006 52 305 2.0 5.0 0.00 0.24 0.06 93 1009.5
20260904115506 52 137 1.0 5.0 0.00 0.24 0.06 93 1009.5
20260904114005 52 42 0.0 5.0 0.06 0.24 0.06 92 1009.5
20260904113505 52 192 0.0 6.0 0.06 0.24 0.06 92 1009.5
20260904113006 52 153 0.0 6.0 0.06 0.24 0.06 92 1009.5
20260904112005 53 305 0.0 2.0 0.06 0.24 0.06 91 1009.5
20260904111506 53 305 0.0 2.0 0.06 0.24 0.06 91 1009.5
20260904111006 53 305 1.0 6.0 0.06 0.24 0.06 91 1009.5
20260904110505 53 311 1.0 6.0 0.06 0.24 0.06 91 1009.5
20260904110005 53 100 1.0 7.0 0.06 0.24 0.06 91 1009.5
20260904105506 53 131 1.0 10.0 0.06 0.24 0.06 91 1009.5
20260904105006 53 113 3.0 10.0 0.06 0.24 0.06 91 1009.5
20260904104006 53 305 0.0 0.0 0.00 0.19 0.00 91 1009.5
20260904103506 53 305 0.0 0.0 0.00 0.19 0.00 91 1009.5
20260904103005 53 305 0.0 0.0 0.00 0.19 0.00 91 1009.5
20260904102505 53 305 0.0 0.0 0.00 0.19 0.00 91 1009.5
20260904102006 53 305 0.0 0.0 0.00 0.19 0.00 91 1009.5
20260904101505 53 305 0.0 0.0 0.00 0.19 0.00 91 1009.5
20260904101005 53 305 0.0 0.0 0.00 0.19 0.00 91 1009.5
20260904100505 53 305 0.0 0.0 0.00 0.19 0.00 91 1009.5
20260904100005 53 27 0.0 0.0 0.00 0.19 0.00 91 1009.5
20260904095505 53 215 0.0 0.0 0.00 0.19 0.00 91 1008.5
20260904095006 53 35 0.0 0.0 0.00 0.19 0.00 92 1008.5
20260904094506 53 35 0.0 0.0 0.00 0.19 0.00 92 1008.5
20260904094005 54 35 0.0 0.0 0.00 0.19 0.00 91 1008.5
20260904093506 54 35 0.0 2.0 0.00 0.19 0.00 91 1008.5
20260904093005 54 35 0.0 2.0 0.00 0.19 0.00 91 1008.5
20260904092005 54 35 0.0 3.0 0.00 0.19 0.00 92 1008.5
20260904091505 54 35 1.0 3.0 0.00 0.19 0.00 92 1008.5
20260904091005 54 282 0.0 2.0 0.00 0.19 0.00 92 1008.5
20260904090505 53 282 0.0 5.0 0.00 0.19 0.00 93 1008.5
20260904090006 53 288 0.0 5.0 0.00 0.19 0.00 93 1008.5
20260904085005 53 305 0.0 0.0 0.00 0.19 0.00 93 1008.5
20260904084505 53 305 0.0 0.0 0.00 0.19 0.00 93 1008.5
20260904084005 53 305 0.0 0.0 0.00 0.19 0.00 93 1009.5
20260904083505 54 305 0.0 0.0 0.00 0.19 0.00 92 1009.5
20260904083005 54 305 0.0 0.0 0.00 0.19 0.00 92 1009.5
20260904082005 54 102 0.0 0.0 0.00 0.19 0.00 92 1008.5
20260904081005 55 63 0.0 2.0 0.00 0.19 0.00 93 1009.5
20260904080505 55 176 0.0 0.0 0.00 0.19 0.00 93 1009.5
20260904080005 55 35 0.0 0.0 0.00 0.19 0.00 93 1009.5
20260904075505 54 35 0.0 5.0 0.00 0.19 0.00 93 1008.5
20260904074505 54 99 3.0 6.0 0.00 0.23 0.00 94 1008.5
20260904074005 54 102 0.0 2.0 0.00 0.23 0.00 94 1008.5
20260904073005 54 68 0.0 0.0 0.00 0.23 0.00 94 1008.5
20260904072006 54 91 0.0 0.0 0.00 0.23 0.00 94 1008.5
20260904071505 54 84 0.0 0.0 0.00 0.23 0.00 94 1008.5
20260904070505 54 102 0.0 0.0 0.00 0.23 0.00 94 1008.5
20260904070006 54 102 0.0 0.0 0.00 0.23 0.00 94 1008.5
20260904065505 54 102 0.0 0.0 0.00 0.23 0.23 93 1008.5
20260904065005 54 102 0.0 0.0 0.00 0.23 0.23 93 1008.5
20260904064505 54 102 0.0 0.0 0.00 0.23 0.23 93 1008.5
20260904064005 54 102 0.0 0.0 0.00 0.23 0.23 93 1009.5
20260904063505 55 102 0.0 0.0 0.00 0.23 0.23 93 1009.5
20260904062005 55 102 0.0 0.0 0.00 0.23 0.23 92 1008.5
20260904061504 55 102 0.0 0.0 0.00 0.23 0.23 92 1008.5
20260904061004 55 102 0.0 0.0 0.00 0.23 0.23 92 1009.5
20260904055504 55 102 0.0 0.0 0.00 0.23 0.23 92 1009.5
20260904054505 55 109 0.0 0.0 0.00 0.23 0.23 92 1009.5
20260904054005 55 148 0.0 0.0 0.00 0.23 0.23 92 1009.5
20260904053505 55 148 0.0 0.0 0.00 0.23 0.23 92 1009.5
20260904053005 55 96 0.0 0.0 0.00 0.23 0.23 91 1009.5
20260904052504 55 129 0.0 0.0 0.00 0.23 0.23 92 1009.5
20260904052005 55 165 0.0 0.0 0.00 0.23 0.23 92 1009.5
20260904051505 55 144 0.0 0.0 0.00 0.23 0.23 91 1009.5
20260904051005 55 164 0.0 0.0 0.00 0.23 0.23 91 1009.5
20260904050505 55 148 0.0 2.0 0.00 0.23 0.23 92 1009.5
20260904050005 55 125 0.0 3.0 0.00 0.23 0.23 92 1009.5
20260904045505 55 139 0.0 3.0 0.00 0.23 0.23 92 1009.5
20260904045005 55 170 0.0 3.0 0.00 0.23 0.23 92 1009.5
20260904044505 55 192 0.0 0.0 0.00 0.23 0.23 92 1009.5
20260904044005 55 192 0.0 0.0 0.00 0.23 0.23 92 1009.5
20260904043504 55 192 0.0 2.0 0.00 0.23 0.23 92 1009.5
20260904043005 55 192 0.0 2.0 0.00 0.23 0.23 93 1009.5
20260904042005 55 282 0.0 3.0 0.00 0.23 0.23 93 1009.5
20260904041005 55 282 0.0 0.0 0.00 0.23 0.23 93 1009.5
20260904040505 55 282 0.0 2.0 0.00 0.23 0.23 93 1009.5
20260904040004 55 282 0.0 2.0 0.00 0.23 0.23 93 1009.5
20260904035505 55 35 0.0 2.0 0.00 0.23 0.23 93 1009.5
20260904035005 55 102 0.0 2.0 0.00 0.23 0.23 93 1009.5
20260904034504 55 103 0.0 0.0 0.00 0.23 0.23 93 1009.5
20260904033505 55 131 0.0 0.0 0.00 0.23 0.23 93 1008.5
20260904033004 55 80 0.0 0.0 0.00 0.23 0.23 93 1008.5
20260904032505 55 80 0.0 0.0 0.00 0.23 0.23 93 1008.5